Tampa, FL

7:52 AM EDT on June 25, 2017 (GMT -0400)
Tampa International

Weather History for KTPA - January, 2013

Change the Weather History Date:

Tuesday, January 29, 2013

  Actual Average Record
Temperature  
Mean Temperature 73 °F 62 °F  
Max Temperature 82 °F 71 °F 83 °F (2002)
Min Temperature 63 °F 52 °F 29 °F (1897)
Degree Days  
Heating Degree Days 0 5  
Month to date heating degree days 46 170  
Since 1 July heating degree days 172 353  
Cooling Degree Days 8 2  
Month to date cooling degree days 116 56  
Year to date cooling degree days 116 56  
Growing Degree Days 22 (Base 50)    
Moisture  
Dew Point 63 °F    
Average Humidity 74    
Maximum Humidity 100    
Minimum Humidity 47    
Precipitation  
Precipitation 0.00 in 0.09 in 1.09 in (1926)
Month to date precipitation 0.49 2.07  
Year to date precipitation 0.49 2.07  
Sea Level Pressure  
Sea Level Pressure 30.18 in    
Wind  
Wind Speed 6 mph (SE)    
Max Wind Speed 9 mph    
Max Gust Speed 18 mph    
Visibility 7 miles    
Events Fog    
T = Trace of Precipitation, MM = Missing Value Source: NWS Daily Summary

Daily Weather History Graph

Daily Weather History Graph

Search for Another Location

Airport or City:

Trip Planner

Search our weather history database for the weather conditions in past years. The results will help you decide how hot, cold, wet, or windy it might be!

Date:

Astronomy

Jan. 29, 2013 Rise Set
Actual Time 7:18 AM EST 6:08 PM EST
Civil Twilight 6:53 AM EST 6:33 PM EST
Nautical Twilight 6:25 AM EST 7:01 PM EST
Astronomical Twilight 5:57 AM EST 7:29 PM EST
Moon 8:43 PM EST (1/29) 8:32 AM EST (1/29)
Length of Visible Light 11h 39m
Length of Day
10h 49m
Waning Gibbous, 94% of the Moon is Illuminated
Jan 29
Waning Gibbous
Feb 3
Last Quarter
Feb 10
New
Feb 17
First Quarter
Feb 25
Full

Hourly Weather History & Observations

Time (EST) Temp. Heat Index Dew Point Humidity Pressure Visibility Wind Dir Wind Speed Gust Speed Precip Events Conditions
12:53 AM 68.0 °F - 62.1 °F 81% 30.25 in 10.0 mi East 5.8 mph - N/A   Clear
1:53 AM 66.9 °F - 62.1 °F 84% 30.23 in 10.0 mi ESE 5.8 mph - N/A   Clear
2:53 AM 66.0 °F - 62.1 °F 87% 30.22 in 9.0 mi ESE 4.6 mph - N/A   Clear
3:53 AM 64.9 °F - 62.1 °F 90% 30.22 in 8.0 mi Calm Calm - N/A   Clear
4:53 AM 64.0 °F - 61.0 °F 90% 30.22 in 7.0 mi ENE 3.5 mph - N/A   Clear
5:49 AM 64.4 °F - 60.8 °F 88% 30.23 in 0.2 mi ENE 3.5 mph - N/A   Scattered Clouds
5:53 AM 64.0 °F - 62.1 °F 93% 30.23 in 0.2 mi NE 3.5 mph - N/A   Scattered Clouds
5:58 AM 64.4 °F - 60.8 °F 88% 30.23 in 0.2 mi ENE 4.6 mph - N/A Fog Fog
6:53 AM 63.0 °F - 62.1 °F 97% 30.23 in 0.2 mi East 3.5 mph - N/A Fog Fog
7:53 AM 64.9 °F - 64.0 °F 97% 30.24 in 1.0 mi East 4.6 mph - N/A   Overcast
8:53 AM 66.9 °F - 64.9 °F 93% 30.25 in 2.0 mi ESE 8.1 mph - N/A   Mostly Cloudy
9:24 AM 69.8 °F - 66.2 °F 88% 30.24 in 3.0 mi ESE 9.2 mph - N/A   Partly Cloudy
9:29 AM 69.8 °F - 64.4 °F 83% 30.24 in 6.0 mi East 6.9 mph - N/A   Haze
9:53 AM 71.1 °F - 64.9 °F 81% 30.24 in 7.0 mi ESE 4.6 mph - N/A   Partly Cloudy
10:53 AM 73.9 °F - 64.9 °F 73% 30.22 in 10.0 mi Variable 6.9 mph 17.3 mph N/A   Partly Cloudy
11:53 AM 77.0 °F - 64.0 °F 64% 30.20 in 10.0 mi SE 9.2 mph 18.4 mph N/A   Partly Cloudy
12:53 PM 80.1 °F 81.2 °F 62.1 °F 54% 30.17 in 10.0 mi SE 9.2 mph - N/A   Partly Cloudy
1:53 PM 82.0 °F 82.4 °F 60.1 °F 47% 30.14 in 10.0 mi SE 9.2 mph - N/A   Partly Cloudy
2:53 PM 79.0 °F - 62.1 °F 56% 30.12 in 10.0 mi SW 4.6 mph - N/A   Scattered Clouds
3:53 PM 79.0 °F - 64.0 °F 60% 30.11 in 10.0 mi South 9.2 mph - N/A   Partly Cloudy
4:53 PM 75.9 °F - 64.0 °F 67% 30.12 in 10.0 mi South 8.1 mph - N/A   Mostly Cloudy
5:53 PM 73.9 °F - 63.0 °F 68% 30.11 in 10.0 mi SSW 5.8 mph - N/A   Overcast
6:53 PM 73.0 °F - 64.0 °F 73% 30.12 in 10.0 mi SSW 3.5 mph - N/A   Overcast
7:53 PM 72.0 °F - 63.0 °F 73% 30.12 in 10.0 mi South 8.1 mph - N/A   Overcast
8:53 PM 72.0 °F - 64.0 °F 76% 30.12 in 10.0 mi South 5.8 mph - N/A   Mostly Cloudy
9:53 PM 73.0 °F - 63.0 °F 71% 30.11 in 10.0 mi Variable 4.6 mph - N/A   Mostly Cloudy
10:53 PM 73.0 °F - 64.9 °F 76% 30.12 in 10.0 mi SE 3.5 mph - N/A   Overcast
11:53 PM 72.0 °F - 64.9 °F 78% 30.12 in 10.0 mi SSE 5.8 mph - N/A   Mostly Cloudy